Tracking 25710 objects as of 7-Jul-2022
HD Live streaming from Space Station
objects crossing your sky now

FENGYUN 1C DEB

Track FENGYUN 1C DEB now!
10-day predictions


NORAD ID: 31018
Int'l Code: 1999-025BDL
Perigee: 830.3 km
Apogee: 930.3 km
Inclination: 99.1 °
Period: 102.4 minutes
Semi major axis: 7251 km
RCS: 0.0147 m2 (small)
Launch date: May 10, 1999
Source: People's Republic of China (PRC)
Launch site: Taiyaun Space Center, China (TSC)

Note: This is SATELLITE DEBRIS
aabbcc
Your satellite tracking list
Your tracking list is empty




NASA's NSSDC Master Catalog

Two Line Element Set (TLE):
1 31018U 99025BDL 22187.39159099  .00001049  00000-0  65306-3 0  9990
2 31018  99.0961 248.6202 0068981  51.1572 309.5725 14.05985929783568
Source of the keplerian elements: AFSPC